Theta_e
300 301 301 301 302 303 304 304 305 305 306 306 305 307 311 314 311 311 316 319 317 320 320 320 320 319 319 320 322 322 324 325 324 327 326 326 327 328 327 327 327 329 330 329 327 329 331 320 321 325 321 318 316 315
300 300 301 302 302 304 306 306 306 306 305 305 305 308 311 314 311 311 315 319 318 318 318 316 317 317 317 318 318 320 323 325 326 327 326 327 326 326 326 326 324 326 327 324 323 324 320 319 319 318 316 316 314 313
300 300 301 302 303 305 307 307 306 304 304 305 306 309 312 313 312 311 316 317 317 319 317 317 319 318 317 316 317 319 323 321 325 326 324 324 324 322 324 324 325 325 322 321 322 323 322 319 317 316 314 313 311 309
300 300 301 302 303 306 307 305 304 303 304 305 307 309 311 313 312 311 316 317 317 317 318 319 316 316 316 314 314 315 317 320 322 320 321 321 322 321 322 322 323 322 321 317 319 320 319 318 316 314 312 311 309 308
300 300 300 300 301 305 307 305 304 304 304 305 306 308 311 314 312 311 315 315 315 316 319 317 315 315 315 315 314 315 317 320 320 321 320 320 321 320 320 320 318 319 320 319 320 318 317 318 313 312 310 309 307 307
299 298 298 299 301 302 305 306 305 304 304 305 307 310 312 314 312 314 315 315 315 315 317 316 315 316 316 316 315 315 317 318 319 320 321 320 319 317 317 318 318 317 316 318 318 316 316 314 312 310 308 307 307 306
299 298 298 298 301 302 304 307 305 305 305 307 310 311 313 313 313 314 312 310 312 314 316 316 317 316 316 315 316 316 316 316 317 319 319 317 316 314 312 314 317 317 316 317 316 318 315 313 311 308 308 308 306 305
299 299 298 298 301 302 304 307 306 305 307 309 310 311 312 313 311 312 308 309 311 312 312 316 318 318 314 316 318 317 317 317 318 317 317 319 316 316 314 319 317 318 318 316 315 313 312 309 308 308 307 305 305 305
299 299 298 298 300 302 305 309 306 306 308 309 310 310 309 309 309 309 309 309 310 312 314 315 319 320 315 317 317 318 317 319 317 317 316 317 318 318 318 319 318 317 316 317 314 313 312 310 308 307 305 304 305 304
298 299 298 298 299 301 302 306 305 307 307 308 306 306 306 304 306 306 308 308 310 312 312 314 316 318 317 318 318 317 317 316 318 318 317 318 316 322 320 318 318 317 316 316 314 313 312 310 308 306 305 305 304 304
297 299 298 298 298 300 301 303 305 306 305 305 305 304 303 305 308 309 311 311 311 312 311 313 314 318 317 317 318 317 318 317 318 318 319 318 320 320 318 318 316 314 312 312 311 309 308 307 306 306 305 304 304 303
296 298 299 298 297 300 300 303 303 303 304 304 305 304 304 307 309 310 310 310 310 312 315 315 316 316 317 318 318 317 317 318 319 318 319 319 322 320 318 317 315 313 312 311 309 308 307 306 305 304 303 304 303 303
295 298 299 297 297 298 301 302 303 303 304 304 305 306 308 308 310 312 313 313 313 313 314 316 317 316 315 316 315 317 318 318 317 319 319 321 320 317 316 316 314 312 311 310 309 307 306 305 304 304 304 303 303 304
294 297 299 298 297 296 300 302 302 302 303 308 309 308 309 310 311 312 313 314 314 314 314 315 315 315 315 314 315 316 316 316 317 316 318 321 317 316 315 315 314 313 312 311 309 307 306 304 303 304 304 303 304 305
294 294 298 298 297 297 297 298 302 302 303 308 309 310 310 311 312 312 313 312 312 312 313 314 314 314 314 315 315 315 317 317 316 316 321 320 316 315 315 315 314 312 312 309 308 307 305 304 303 304 303 304 304 305
293 294 296 298 297 297 297 298 301 302 305 307 308 309 310 312 311 311 310 312 311 311 313 314 314 315 315 315 315 316 316 316 318 321 320 318 316 315 315 315 314 313 311 309 308 306 304 304 304 304 304 304 307 308
294 298 298 297 297 296 297 300 303 304 306 307 307 308 309 310 311 310 309 311 308 310 314 314 314 315 314 315 315 314 315 316 319 320 318 317 316 315 315 314 313 312 310 309 308 305 304 304 304 303 305 305 307 309
298 299 295 297 298 301 302 300 304 304 304 305 307 308 308 309 311 309 309 308 308 310 311 312 312 314 315 314 314 315 315 316 317 318 317 317 316 315 314 313 313 311 310 309 307 305 304 303 304 304 305 305 307 309
298 299 295 297 300 300 302 302 302 304 304 306 306 308 308 308 309 308 308 307 306 307 309 310 311 312 312 314 314 314 311 315 316 316 315 314 313 313 312 313 312 310 309 308 307 306 305 304 303 303 305 304 307 308
296 297 297 297 298 302 303 303 301 304 304 306 306 306 306 306 307 307 308 307 306 306 307 307 309 310 312 313 312 313 310 313 314 313 312 312 311 311 311 312 311 309 309 308 307 305 304 303 303 303 305 305 307 308
296 298 296 297 301 301 303 304 303 304 305 305 305 305 305 306 306 307 307 307 306 306 307 307 308 311 310 309 306 309 311 312 312 312 312 312 310 310 310 311 311 310 309 308 307 307 304 303 302 302 304 305 306 307
299 298 300 299 301 302 302 302 304 305 305 304 304 305 304 304 306 306 306 306 305 305 305 307 309 309 308 307 306 310 311 310 309 308 309 312 311 310 311 311 311 311 311 309 308 307 306 304 303 303 304 305 306 307
298 298 300 301 301 299 299 301 303 303 302 303 304 303 304 305 307 306 306 306 305 305 305 305 306 305 307 306 307 310 309 309 309 309 309 309 310 310 310 310 311 310 310 310 310 308 306 304 303 303 305 305 306 307
299 300 301 301 300 299 302 302 302 303 303 303 302 303 306 309 307 308 307 306 306 305 305 304 306 308 307 308 307 307 307 309 308 307 308 308 307 307 308 308 309 309 311 311 310 308 305 304 303 304 305 305 306 307
299 298 299 298 301 302 301 302 302 302 302 304 305 305 308 308 308 308 308 311 307 308 308 307 304 305 307 307 307 306 304 305 307 307 306 307 307 305 305 307 307 310 310 310 309 307 306 304 303 304 305 306 307 308
297 298 299 301 301 301 302 302 303 303 305 304 306 306 307 308 307 307 308 309 309 308 307 307 307 307 308 307 307 307 307 307 307 308 308 307 305 305 306 306 307 309 309 309 309 308 306 305 305 304 305 306 307 307
297 301 301 301 303 302 302 303 304 307 305 305 307 306 306 307 306 307 305 305 306 305 305 305 305 305 306 306 306 306 306 306 306 307 307 307 308 308 308 307 305 305 307 310 309 308 308 306 305 305 304 306 306 307
301 301 302 302 302 303 303 303 304 305 307 307 307 305 304 305 306 305 305 304 303 303 303 305 304 304 304 305 305 305 305 306 305 305 305 305 307 307 308 308 307 305 305 309 310 309 308 307 306 306 306 305 306 306
300 301 302 303 303 303 304 305 306 307 306 308 308 307 303 306 305 304 303 302 302 302 303 303 304 303 303 303 304 304 305 304 306 307 307 306 306 306 306 307 308 307 305 305 308 309 309 308 307 306 306 306 306 306
300 301 301 302 303 304 307 307 307 306 305 305 304 304 304 303 303 303 303 302 303 302 301 301 302 301 301 302 302 302 303 304 304 306 307 307 306 306 306 306 307 307 306 305 306 309 309 308 307 307 307 306 305 306
301 302 301 302 303 307 306 305 302 300 300 300 299 301 300 301 299 301 302 302 302 300 300 300 300 300 300 300 300 301 301 302 303 304 305 305 305 305 305 305 306 307 307 306 306 309 308 308 307 307 306 306 305 306
301 301 304 304 306 306 304 301 301 301 299 298 300 298 298 299 300 302 302 302 301 300 299 299 299 299 299 300 299 299 299 300 300 302 303 304 304 304 305 306 307 308 307 307 307 308 308 308 307 307 306 306 305 305
304 304 304 305 306 304 304 303 303 304 303 305 305 304 302 303 304 302 301 300 300 300 298 297 296 296 297 297 298 299 299 299 299 300 300 301 303 304 305 305 307 307 306 307 306 308 308 308 307 306 306 306 305 305
Wind_Speed
10 11 13 15 18 21 22 20 17 17 17 17 14 13 9 6 5 6 7 5 3 3 6 8 7 5 5 4 3 4 4 4 3 1 2 3 1 3 4 2 5 1 3 1 2 3 3 4 8 5 1 5 8 8
10 11 13 16 19 20 18 16 17 16 17 16 15 12 10 7 6 4 4 3 4 4 5 19 15 7 4 3 1 4 2 1 3 2 3 3 2 3 1 2 6 3 2 1 4 3 6 6 4 6 7 8 9 11
9 11 13 15 16 18 15 14 12 16 14 14 14 13 11 8 7 6 4 8 10 3 7 6 2 7 4 2 4 2 1 3 4 2 2 2 2 1 2 2 3 3 3 3 4 3 4 6 9 9 9 8 11 10
7 10 12 13 13 13 10 10 10 7 8 10 13 12 11 9 7 6 3 8 9 5 2 1 1 5 4 5 4 9 7 6 6 2 2 2 1 0 2 3 1 4 2 4 7 6 9 8 8 8 9 11 11 13
6 9 10 11 12 11 8 6 6 4 7 11 11 12 10 9 7 5 3 3 7 3 3 4 16 16 11 6 5 5 7 1 2 3 2 3 0 4 3 2 0 2 1 3 3 2 7 6 7 9 12 10 7 8
4 8 10 10 11 10 9 4 3 5 9 10 12 12 9 9 7 4 2 2 2 1 3 3 4 3 9 7 5 6 6 2 2 2 2 1 1 2 1 2 3 6 7 5 4 6 10 9 9 18 12 7 11 13
4 7 10 10 10 9 7 3 7 9 10 10 11 13 11 11 9 2 2 1 5 3 2 3 4 3 13 10 5 4 8 3 3 2 3 2 1 2 0 2 6 8 7 8 8 6 8 8 7 15 14 11 16 14
3 6 9 11 9 10 11 3 13 11 11 12 13 13 11 10 6 3 5 5 4 3 3 3 3 2 5 2 2 5 3 3 3 3 3 1 1 1 1 7 8 7 8 8 8 8 7 17 17 12 13 12 9 6
3 5 8 11 9 10 9 8 16 14 13 14 14 15 11 3 3 1 3 2 4 2 1 2 3 2 5 3 3 1 2 2 3 3 3 1 2 3 5 9 8 8 6 8 7 6 8 14 9 7 9 9 7 4
2 3 5 9 11 8 11 16 14 15 13 20 7 4 2 3 12 7 2 2 2 1 3 3 2 2 1 3 2 3 1 2 2 4 2 3 3 5 9 7 7 8 7 7 10 8 7 9 8 7 6 11 7 3
1 2 4 6 9 9 7 13 23 24 15 2 3 2 7 5 1 1 2 2 3 3 3 4 5 3 2 4 3 1 2 1 2 4 4 2 2 5 11 10 8 16 18 17 20 17 16 11 6 6 7 8 5 3
0 2 2 4 6 9 6 6 5 4 4 5 13 9 3 1 1 2 4 4 4 3 4 4 5 5 1 2 2 1 2 2 3 1 0 2 1 8 12 12 10 16 17 19 21 17 14 11 9 10 9 6 3 2
2 3 3 3 5 7 8 6 10 23 17 5 4 3 2 2 2 5 7 3 3 3 3 2 4 2 3 3 2 1 3 4 1 2 3 2 5 10 10 8 9 20 18 20 19 17 14 11 8 10 9 4 3 3
1 2 2 2 3 4 5 11 11 4 2 2 2 4 5 4 5 4 3 3 2 3 1 5 4 2 2 2 2 2 2 2 3 3 3 6 10 10 9 8 9 9 13 17 19 15 14 11 8 8 6 4 4 3
2 3 2 2 2 3 3 3 5 3 2 1 3 3 6 2 3 2 4 2 3 4 3 3 2 2 2 2 2 2 2 3 4 2 2 7 8 8 7 7 7 10 12 20 17 14 14 11 8 8 5 3 4 3
2 4 2 2 2 2 4 3 4 2 3 2 4 3 4 3 2 3 3 4 5 4 2 3 1 1 2 1 3 4 3 3 2 2 6 8 8 7 7 9 11 16 22 19 16 16 13 10 7 7 4 5 4 3
1 2 1 2 1 2 3 2 5 4 3 3 3 3 2 2 2 3 3 4 5 2 2 2 1 2 2 2 3 3 3 2 5 3 4 6 8 8 11 13 17 24 22 20 18 15 11 9 8 6 5 5 1 3
3 2 1 4 1 2 2 4 4 3 4 4 3 1 1 4 4 4 3 5 1 1 2 1 3 3 3 3 1 3 4 3 5 4 5 6 10 16 15 15 19 23 21 19 17 14 11 9 7 6 4 5 1 1
2 4 1 4 0 3 3 4 4 3 4 1 4 2 1 5 5 9 9 10 7 4 1 2 3 3 4 2 3 3 6 2 4 5 5 14 15 13 4 13 27 25 21 19 16 11 10 8 7 7 5 7 4 6
1 2 3 2 1 3 3 2 1 3 2 3 1 4 2 3 5 6 7 6 4 3 1 3 3 3 2 2 1 1 1 6 7 7 5 7 16 9 12 13 22 27 22 18 15 14 12 9 7 9 6 6 4 4
1 1 2 1 3 6 4 2 3 2 2 2 1 2 1 0 3 4 5 6 3 3 3 5 6 4 6 8 12 9 15 20 5 6 8 6 12 15 10 12 22 19 18 17 14 13 11 11 12 12 8 8 4 6
1 5 1 4 3 3 3 4 2 3 2 2 2 2 2 3 3 4 6 5 6 4 4 3 0 3 4 9 15 9 10 14 15 6 5 21 16 15 16 16 17 17 19 18 18 15 14 12 13 15 11 8 9 10
5 3 3 4 1 2 4 6 3 2 2 2 2 2 3 1 2 5 2 3 5 5 9 6 5 7 2 5 11 13 13 12 10 6 11 8 14 9 3 9 16 14 19 16 19 19 15 13 15 16 12 10 8 9
2 3 2 2 4 3 3 3 3 3 2 3 2 1 2 2 2 1 2 2 2 2 6 9 10 6 11 6 13 11 8 9 8 6 2 9 14 17 18 16 13 12 26 26 21 19 17 14 17 17 12 11 8 8
0 3 2 3 4 3 4 4 4 3 3 2 2 1 2 1 1 3 2 1 2 3 5 3 12 7 3 3 10 4 3 5 11 7 7 10 5 5 3 13 13 19 27 23 20 20 18 15 16 18 15 12 8 6
1 5 3 4 3 4 3 1 2 2 1 3 3 3 3 1 1 2 2 4 4 4 5 7 6 4 4 11 8 9 11 14 9 7 7 6 10 5 4 2 5 21 29 24 27 23 20 17 16 19 17 14 9 7
3 3 5 7 3 1 2 1 3 2 3 1 2 3 1 1 2 2 2 7 3 9 7 3 4 5 4 6 8 8 7 6 5 6 8 9 9 10 11 8 7 7 18 31 28 26 25 21 18 16 20 19 15 12
4 3 1 1 3 1 3 3 2 0 1 1 1 2 4 3 2 3 3 4 2 3 2 2 1 3 5 6 7 8 7 5 6 9 11 10 10 10 8 7 9 3 11 24 28 26 24 21 19 18 16 21 22 17
4 4 4 6 7 3 1 3 4 3 2 2 2 1 2 1 5 7 7 5 3 3 2 3 4 2 5 7 8 9 9 8 6 6 7 4 6 9 10 8 8 6 4 17 25 29 24 20 19 19 16 12 19 18
7 5 4 3 6 3 3 3 2 3 1 2 2 2 2 3 3 3 5 6 5 2 3 4 5 6 8 7 7 9 8 11 11 11 6 6 9 8 8 8 12 11 6 16 18 26 24 20 19 18 16 11 12 14
4 1 3 4 2 3 3 3 4 3 3 1 4 0 1 2 5 6 10 8 6 3 2 3 4 6 8 8 9 8 10 10 13 16 16 17 19 13 13 15 15 12 12 23 25 28 28 26 22 20 15 12 16 18
4 3 2 3 3 3 1 1 1 2 2 2 2 3 2 2 2 2 4 7 3 2 3 5 8 11 11 13 15 17 18 20 19 13 10 14 18 20 16 13 12 14 10 24 28 27 24 21 20 17 15 13 13 19
4 4 4 2 2 2 1 1 2 3 4 3 2 5 5 5 3 3 7 8 5 2 3 11 16 17 17 18 18 19 18 18 19 19 20 19 15 17 17 16 14 11 14 25 21 20 23 20 18 15 12 11 11 16
Wind_Direction
282 293 301 306 309 306 299 294 286 286 281 275 253 229 237 243 259 290 278 291 304 305 314 7 11 354 340 19 13 325 2 345 327 313 283 271 9 349 349 68 147 66 307 253 354 62 270 337 41 24 263 18 51 58
284 293 305 307 304 305 297 287 284 274 274 262 237 215 219 222 234 255 281 332 277 253 282 312 293 290 346 27 75 326 306 314 277 16 339 10 309 359 236 331 350 37 99 184 132 196 196 228 134 87 74 59 54 59
284 291 301 306 304 309 308 292 285 283 259 239 211 202 208 208 219 220 272 346 326 254 275 273 294 173 158 230 216 170 79 10 354 333 283 261 25 29 358 307 20 59 23 70 102 91 135 131 64 63 71 65 67 61
284 301 308 314 318 323 306 304 296 265 228 210 190 194 203 203 209 219 258 341 345 321 273 136 328 255 194 154 231 232 257 305 304 283 271 276 311 151 301 219 253 188 128 105 104 102 86 67 78 69 60 63 57 62
302 314 322 329 330 333 317 300 290 244 206 190 190 192 201 195 199 208 276 309 350 15 323 309 311 284 180 180 242 225 212 231 304 314 255 256 262 36 287 326 55 58 123 105 161 100 110 99 77 70 78 70 63 63
332 343 342 338 341 337 338 267 248 200 176 177 184 182 185 183 162 124 232 231 188 7 290 283 330 235 237 215 223 242 198 192 231 290 287 265 129 116 21 297 137 95 71 74 126 100 107 107 85 89 86 63 69 82
328 343 347 351 352 348 328 273 179 170 173 172 171 169 161 154 147 87 29 331 88 161 260 286 280 211 233 167 205 221 214 237 203 248 250 225 143 108 204 213 138 107 114 77 56 94 74 70 99 98 98 86 91 91
338 346 353 1 0 352 336 242 174 174 170 161 151 149 149 155 136 80 36 81 78 349 313 276 265 170 165 192 224 204 171 199 269 217 309 203 61 153 280 126 119 120 112 107 98 93 120 107 102 98 81 94 83 75
339 343 2 8 11 6 22 139 160 160 157 150 144 145 124 86 71 268 159 35 63 20 284 305 301 314 161 249 168 240 158 205 256 203 232 321 212 195 219 152 146 149 141 123 128 129 85 106 105 89 85 94 100 88
339 339 9 16 17 25 55 116 141 143 138 137 117 88 86 139 124 113 50 14 356 199 207 249 234 250 267 141 215 127 237 194 237 238 206 195 240 138 114 106 108 119 119 105 92 70 68 93 96 85 87 101 109 108
301 8 11 20 26 34 54 105 134 143 140 95 81 75 133 109 117 19 127 227 175 226 214 241 247 264 306 158 211 120 230 232 234 254 152 242 200 164 120 112 96 87 88 89 93 86 75 74 99 109 97 105 109 88
158 359 39 28 34 35 61 123 102 103 114 106 113 113 111 201 161 175 182 161 215 250 193 210 202 193 243 53 116 249 321 228 248 207 199 266 72 114 113 108 104 103 97 93 96 94 87 86 87 106 118 124 111 87
122 69 89 58 52 50 59 108 124 120 116 89 86 111 176 151 151 200 185 182 207 210 250 149 52 62 18 47 337 184 226 239 79 219 213 120 126 110 113 109 105 103 110 113 108 105 101 95 107 129 122 132 115 92
96 151 111 64 77 74 94 135 138 92 95 208 130 139 203 176 224 216 217 185 229 325 77 90 123 160 111 173 310 266 264 321 255 237 201 154 145 139 126 128 126 136 124 119 116 116 116 116 121 127 125 132 103 91
338 196 155 84 97 98 108 151 199 348 294 245 226 206 207 236 100 166 110 76 7 8 16 90 107 174 164 138 216 230 248 243 248 242 107 139 135 126 125 128 121 119 115 115 119 117 118 127 141 128 120 117 118 142
339 149 173 118 86 124 121 76 164 271 251 250 237 225 187 174 176 169 118 88 18 2 26 29 117 163 217 246 227 219 232 234 16 68 131 132 137 125 120 125 128 115 111 117 113 114 124 139 144 129 125 119 94 7
68 51 142 159 108 130 160 192 216 234 237 234 240 218 209 182 133 53 88 82 355 1 52 26 284 219 290 217 215 237 242 74 124 108 122 132 132 138 138 133 115 113 117 118 115 120 125 137 134 132 127 135 59 14
35 31 282 174 165 329 248 218 255 227 236 240 236 154 50 72 146 121 108 78 29 68 129 95 318 237 224 245 205 335 26 66 107 141 129 122 130 144 147 135 125 124 121 119 119 123 135 148 149 139 128 170 177 282
58 82 170 176 123 338 252 227 239 278 239 274 224 170 159 140 123 136 114 86 81 69 20 299 248 246 237 51 5 8 6 61 120 86 80 98 117 96 57 139 118 123 126 126 130 138 141 161 167 157 162 188 238 239
264 181 180 191 310 285 256 178 234 272 313 320 303 193 203 184 143 131 126 141 135 101 152 231 246 308 333 38 34 314 2 276 136 124 111 95 117 120 97 121 128 130 134 142 137 137 136 139 162 171 175 193 301 289
321 188 185 180 258 232 271 282 232 288 288 280 338 296 213 188 174 144 168 174 183 185 210 216 257 326 12 33 349 309 264 228 156 141 136 123 120 151 228 185 142 138 138 147 156 158 158 165 169 178 188 199 207 258
228 152 210 242 264 258 255 228 252 307 278 270 276 233 234 207 228 190 189 185 220 223 199 223 259 323 57 29 321 301 144 121 125 112 158 156 162 190 205 178 171 169 165 166 159 165 156 160 168 175 176 195 223 265
172 206 241 242 306 40 265 271 235 223 248 227 225 209 226 191 69 7 272 216 226 216 166 203 154 305 272 160 305 211 142 146 147 187 168 174 167 137 179 243 189 171 142 166 157 151 155 164 164 169 173 198 220 260
243 279 279 255 197 247 241 221 227 230 246 256 250 275 47 64 340 193 253 261 118 22 178 202 219 150 260 230 168 216 134 145 118 64 347 165 148 174 186 224 228 185 159 152 150 153 153 159 162 166 177 195 216 262
194 282 176 250 260 237 229 202 207 217 241 357 326 160 137 210 241 225 222 306 241 72 15 313 192 210 213 208 202 206 63 135 135 121 298 297 282 217 238 135 162 137 151 144 146 149 158 162 164 170 172 194 219 236
266 216 191 224 243 216 251 215 191 275 253 246 176 171 153 176 277 294 43 1 40 67 51 24 11 5 34 17 15 38 28 33 43 38 47 240 276 275 216 217 180 154 169 169 158 156 160 167 168 175 174 189 207 227
247 250 194 215 250 300 305 319 240 193 253 279 147 164 142 37 248 78 20 346 40 41 67 80 357 2 27 10 337 358 2 4 356 338 341 340 354 348 359 300 241 231 175 171 168 168 165 169 169 177 185 191 202 215
261 297 263 321 293 213 228 277 258 213 75 19 23 191 170 194 193 149 156 159 10 350 350 337 293 343 329 312 293 298 289 299 287 297 306 291 292 298 308 334 347 259 200 173 172 168 173 173 169 176 185 194 202 207
263 288 232 235 232 249 279 345 14 69 33 21 19 331 235 277 132 151 161 175 168 184 214 258 256 279 297 283 271 265 276 283 271 269 268 256 255 265 270 283 296 316 205 181 163 176 176 174 169 172 193 193 201 207
239 234 245 204 242 313 56 11 61 72 108 168 182 331 356 309 47 143 174 183 168 85 328 292 280 273 270 290 287 288 263 243 242 240 254 255 259 264 269 275 264 275 206 179 167 165 168 163 158 162 175 184 192 186
307 281 272 266 286 74 79 56 63 22 21 356 12 51 226 320 313 259 208 192 170 178 234 247 270 263 242 249 246 256 269 269 244 236 237 253 252 263 282 282 277 283 268 180 168 168 162 159 165 168 175 179 191 196
262 268 26 335 4 94 114 110 259 241 198 201 203 185 192 208 248 256 167 165 185 263 243 255 278 280 274 261 257 252 254 261 259 251 253 244 245 245 255 268 266 295 238 184 169 162 170 166 170 174 175 183 196 201
4 355 10 50 359 351 186 226 248 236 198 205 242 201 205 206 216 147 199 216 234 227 281 303 288 280 272 259 255 249 252 251 252 252 247 244 242 232 232 239 254 256 177 166 172 179 175 173 172 179 179 184 207 207